Lamar, CO

4:19 AM MST on November 21, 2019 (GMT -0700)
Lamar Municipal

Weather History for KLAA - September, 2019

Change the Weather History Date:

Sunday, September 29, 2019

  Actual Average Record
Temperature  
Mean Temperature 81 °F 61 °F  
Max Temperature 96 °F 78 °F 97 °F (1933)
Min Temperature 66 °F 44 °F 27 °F (1984)
Degree Days  
Heating Degree Days 0 6  
Month to date heating degree days 6 74  
Since 1 July heating degree days 6 79  
Cooling Degree Days 16 1  
Month to date cooling degree days 285 120  
Year to date cooling degree days 1387 1109  
Growing Degree Days 30 (Base 50)    
Moisture  
Dew Point 54 °F    
Average Humidity 52    
Maximum Humidity 87    
Minimum Humidity 16    
Precipitation  
Precipitation 0.00 in 0.03 in 1.22 in (1941)
Month to date precipitation 0.52 1.22  
Year to date precipitation 7.75 13.59  
Sea Level Pressure  
Sea Level Pressure 29.59 in    
Wind  
Wind Speed 25 mph (South)    
Max Wind Speed 39 mph    
Max Gust Speed 51 mph    
Visibility 10 miles    
Events      
T = Trace of Precipitation, MM = Missing Value Source: NWS Daily Summary

Daily Weather History Graph

Daily Weather History Graph

Search for Another Location

Airport or City:

Astronomy

Sep. 29, 2019 Rise Set
Actual Time 6:44 AM MDT 6:37 PM MDT
Civil Twilight 6:18 AM MDT 7:03 PM MDT
Nautical Twilight 5:47 AM MDT 7:33 PM MDT
Astronomical Twilight 5:16 AM MDT 8:04 PM MDT
Moon 7:37 AM MDT (9/29) 7:39 PM MDT (9/29)
Length of Visible Light 12h 45m
Length of Day
11h 52m
New Moon, 1% of the Moon is Illuminated
Sep 29
New Moon
Oct 5
First Quarter
Oct 13
Full
Oct 21
Last Quarter
Oct 27
New

Hourly Weather History & Observations

Time (MDT) Temp. Heat Index Dew Point Humidity Pressure Visibility Wind Dir Wind Speed Gust Speed Precip Events Conditions
12:53 AM 68.0 °F - 61.0 °F 78% 29.68 in 10.0 mi South 18.4 mph 26.5 mph N/A   Clear
1:53 AM 68.0 °F - 61.0 °F 78% 29.67 in 10.0 mi South 15.0 mph 26.5 mph N/A   Clear
2:53 AM 66.9 °F - 62.1 °F 84% 29.64 in 10.0 mi South 19.6 mph - N/A   Clear
3:53 AM 66.0 °F - 62.1 °F 87% 29.64 in 10.0 mi SSE 16.1 mph 26.5 mph N/A   Clear
4:53 AM 66.0 °F - 61.0 °F 84% 29.64 in 10.0 mi South 20.7 mph 28.8 mph N/A   Clear
5:53 AM 66.9 °F - 61.0 °F 81% 29.62 in 10.0 mi South 24.2 mph 34.5 mph N/A   Clear
6:53 AM 66.0 °F - 61.0 °F 84% 29.65 in 10.0 mi South 23.0 mph 32.2 mph N/A   Clear
7:53 AM 68.0 °F - 62.1 °F 81% 29.67 in 10.0 mi SSE 20.7 mph 29.9 mph N/A   Clear
8:53 AM 75.0 °F - 62.1 °F 64% 29.65 in 10.0 mi South 26.5 mph 39.1 mph N/A   Clear
9:53 AM 80.1 °F 80.6 °F 57.9 °F 47% 29.65 in 10.0 mi SSW 25.3 mph 41.4 mph N/A   Clear
10:53 AM 88.0 °F - 46.9 °F 24% 29.63 in 10.0 mi SW 20.7 mph 34.5 mph N/A   Clear
11:53 AM 91.9 °F - 39.0 °F 16% 29.58 in 10.0 mi SW 27.6 mph 43.7 mph N/A   Clear
12:53 PM 93.9 °F - 41.0 °F 16% 29.56 in 10.0 mi SSW 31.1 mph 48.3 mph N/A   Clear
1:53 PM 95.0 °F - 43.0 °F 17% 29.52 in 10.0 mi SSW 26.5 mph 49.5 mph N/A   Clear
2:53 PM 95.0 °F - 43.0 °F 17% 29.51 in 10.0 mi SSW 32.2 mph 47.2 mph N/A   Clear
3:53 PM 93.9 °F - 44.1 °F 18% 29.50 in 10.0 mi SSW 33.4 mph 50.6 mph N/A   Clear
4:53 PM 93.0 °F - 43.0 °F 18% 29.50 in 10.0 mi SSW 29.9 mph 44.9 mph N/A   Clear
5:53 PM 89.1 °F - 45.0 °F 22% 29.51 in 10.0 mi South 29.9 mph 48.3 mph N/A   Unknown
6:53 PM 86.0 °F - 45.0 °F 24% 29.54 in 10.0 mi South 21.9 mph 35.7 mph N/A   Clear
7:53 PM 82.9 °F - 44.1 °F 25% 29.55 in 10.0 mi South 24.2 mph 34.5 mph N/A   Clear
8:53 PM 80.1 °F 81.2 °F 62.1 °F 54% 29.57 in 10.0 mi South 28.8 mph 47.2 mph N/A   Clear
9:53 PM 79.0 °F - 64.0 °F 60% 29.57 in 10.0 mi South 29.9 mph 41.4 mph N/A   Clear
10:53 PM 78.1 °F - 64.9 °F 64% 29.57 in 10.0 mi South 29.9 mph 42.6 mph N/A   Clear
11:53 PM 77.0 °F - 64.9 °F 66% 29.58 in 10.0 mi South 24.2 mph 38.0 mph N/A   Clear